Hourly Data Report for October 06, 2017

All times are specified in Local Standard Time (LST). Add 1 hour to adjust for Daylight Saving Time where and when it is observed.

SUDBURY A
ONTARIO

46°37'32.000" N
80°47'52.000" W
348.40 m
6068153
71730
YSB

Download Data

Hourly Data (October 2017)
Hourly Data Report for October 6, 2017
Temp Definition
°C
Dew Point Temp Definition
°C
Rel Hum Definition
%
Wind Dir Definition
10's deg

Wind Spd Definition
km/h
Visibility Definition
km
Stn Press Definition
kPa
Hmdx Definition


Wind Chill Definition


Weather Definition


TIME
00:00 Legend Double Dagger 6.8 4.7 86 30 6 24.1 97.51     LegendNANA
01:00 Legend Double Dagger 5.0 4.1 94 23 10 24.1 97.52     Mainly Clear
02:00 Legend Double Dagger 5.9 4.2 89 27 8 24.1 97.54     LegendNANA
03:00 Legend Double Dagger 4.3 3.5 95 29 10 24.1 97.54     LegendNANA
04:00 Legend Double Dagger 4.2 3.6 96 29 8 24.1 97.55     Mainly Clear
05:00 Legend Double Dagger 3.3 2.8 97 29 9 24.1 97.58     LegendNANA
06:00 Legend Double Dagger 3.4 3.0 98 29 9 32.2 97.61     LegendNANA
07:00 Legend Double Dagger 2.6 2.3 98 30 10 32.2 97.65     Clear
08:00 Legend Double Dagger 5.8 5.4 97 29 3 32.2 97.69     LegendNANA
09:00 Legend Double Dagger 8.3 5.7 84   0 32.2 97.73     LegendNANA
10:00 Legend Double Dagger 10.7 3.4 60 18 6 32.2 97.73     Clear
11:00 Legend Double Dagger 12.9 0.8 43 31 14 32.2 97.69     LegendNANA
12:00 Legend Double Dagger 13.8 2.3 46 24 8 32.2 97.67     LegendNANA
13:00 Legend Double Dagger 13.2 1.4 44 36 3 32.2 97.63     Mainly Clear
14:00 Legend Double Dagger 14.3 2.4 44 19 4 32.2 97.57     LegendNANA
15:00 Legend Double Dagger 14.8 1.9 41 24 10 32.2 97.51     LegendNANA
16:00 Legend Double Dagger 15.1 3.0 44 22 16 32.2 97.45     Mainly Clear
17:00 Legend Double Dagger 14.4 3.0 46 19 6 32.2 97.41     LegendNANA
18:00 Legend Double Dagger 11.4 3.3 57 19 13 32.2 97.41     LegendNANA
19:00 Legend Double Dagger 10.4 3.2 61 20 16 24.1 97.44     Mainly Clear
20:00 Legend Double Dagger 8.7 3.4 69 21 13 24.1 97.47     LegendNANA
21:00 Legend Double Dagger 7.7 4.5 80 20 8 24.1 97.42     LegendNANA
22:00 Legend Double Dagger 7.9 5.8 87 18 10 24.1 97.38     Mainly Clear
23:00 Legend Double Dagger 7.8 6.3 90 19 8 24.1 97.34     LegendNANA

Notes on Data Quality.

Legend

  • E = Estimated
  • M = Missing
  • NA = Not Available
  • ‡ = Partner data that is not subject to review by the National Climate Archives
Date modified: